Year,Month,Day,Hour,Minute,Value (Times are PST for windspeed in km/hr)
2010,04,01,00,00,0.00
2010,04,01,00,01,0.00
2010,04,01,00,02,0.00
2010,04,01,00,03,0.00
2010,04,01,00,04,0.20
2010,04,01,00,05,0.80
2010,04,01,00,06,0.30
2010,04,01,00,07,0.00
2010,04,01,00,08,0.00
2010,04,01,00,09,0.00
2010,04,01,00,10,0.00
2010,04,01,00,11,0.00
2010,04,01,00,12,0.00
2010,04,01,00,13,0.00
2010,04,01,00,14,0.00
2010,04,01,00,15,0.00
2010,04,01,00,16,0.00
2010,04,01,00,17,0.00
2010,04,01,00,18,0.00
2010,04,01,00,19,0.00
2010,04,01,00,20,0.00
2010,04,01,00,21,0.00
2010,04,01,00,22,0.00
2010,04,01,00,23,0.00
2010,04,01,00,24,0.00
2010,04,01,00,25,0.00
2010,04,01,00,26,0.00
2010,04,01,00,27,0.00
2010,04,01,00,28,0.00
2010,04,01,00,29,0.00
2010,04,01,00,30,0.00
2010,04,01,00,31,0.00
2010,04,01,00,32,0.00
2010,04,01,00,33,0.00
2010,04,01,00,34,0.00
2010,04,01,00,35,0.00
2010,04,01,00,36,0.00
2010,04,01,00,37,0.00
2010,04,01,00,38,0.00
2010,04,01,00,39,0.00
2010,04,01,00,40,0.00
2010,04,01,00,41,0.00
2010,04,01,00,42,0.00
2010,04,01,00,43,0.00
2010,04,01,00,44,0.00
2010,04,01,00,45,0.00
2010,04,01,00,46,0.00
2010,04,01,00,47,0.00
2010,04,01,00,48,0.00
2010,04,01,00,49,0.00
2010,04,01,00,50,0.00
2010,04,01,00,51,0.00
2010,04,01,00,52,0.00
2010,04,01,00,53,0.00
2010,04,01,00,54,0.00
2010,04,01,00,55,0.10
2010,04,01,00,56,0.60
2010,04,01,00,57,0.70
2010,04,01,00,58,0.00
2010,04,01,00,59,0.10
2010,04,01,01,00,0.00
2010,04,01,01,01,0.20
2010,04,01,01,02,0.70
2010,04,01,01,03,0.60
2010,04,01,01,04,0.00
2010,04,01,01,05,0.10
2010,04,01,01,06,0.10
2010,04,01,01,07,0.00
2010,04,01,01,08,0.00
2010,04,01,01,09,0.30
2010,04,01,01,10,0.00
2010,04,01,01,11,1.00
2010,04,01,01,12,0.60
2010,04,01,01,13,1.20
2010,04,01,01,14,0.60
2010,04,01,01,15,1.80
2010,04,01,01,16,1.10
2010,04,01,01,17,1.90
2010,04,01,01,18,1.90
2010,04,01,01,19,1.60
2010,04,01,01,20,3.20
2010,04,01,01,21,2.90
2010,04,01,01,22,1.70
2010,04,01,01,23,0.40
2010,04,01,01,24,0.30
2010,04,01,01,25,0.00
2010,04,01,01,26,0.00
2010,04,01,01,27,0.10
2010,04,01,01,28,0.10
2010,04,01,01,29,0.00
2010,04,01,01,30,0.00
2010,04,01,01,31,0.00
2010,04,01,01,32,0.10
2010,04,01,01,33,0.10
2010,04,01,01,34,0.30
2010,04,01,01,35,0.10
2010,04,01,01,36,0.50
2010,04,01,01,37,0.10
2010,04,01,01,38,0.10
2010,04,01,01,39,0.00
2010,04,01,01,40,0.00
2010,04,01,01,41,0.00
2010,04,01,01,42,0.00
2010,04,01,01,43,0.00
2010,04,01,01,44,0.00
2010,04,01,01,45,0.00
2010,04,01,01,46,0.00
2010,04,01,01,47,0.00
2010,04,01,01,48,0.00
2010,04,01,01,49,0.40
2010,04,01,01,50,0.00
2010,04,01,01,51,0.10
2010,04,01,01,52,0.00
2010,04,01,01,53,0.00
2010,04,01,01,54,0.00
2010,04,01,01,55,0.00
2010,04,01,01,56,0.00
2010,04,01,01,57,0.10
2010,04,01,01,58,0.00
2010,04,01,01,59,0.00
2010,04,01,02,00,0.00
2010,04,01,02,01,0.00
2010,04,01,02,02,0.00
2010,04,01,02,03,0.00
2010,04,01,02,04,0.00
2010,04,01,02,05,0.00
2010,04,01,02,06,0.00
2010,04,01,02,07,0.00
2010,04,01,02,08,0.00
2010,04,01,02,09,0.00
2010,04,01,02,10,0.10
2010,04,01,02,11,0.00
2010,04,01,02,12,0.00
2010,04,01,02,13,0.00
2010,04,01,02,14,0.00
2010,04,01,02,15,0.10
2010,04,01,02,16,0.70
2010,04,01,02,17,0.00
2010,04,01,02,18,0.10
2010,04,01,02,19,0.30
2010,04,01,02,20,0.00
2010,04,01,02,21,0.10
2010,04,01,02,22,0.00
2010,04,01,02,23,0.00
2010,04,01,02,24,0.00
2010,04,01,02,25,0.00
2010,04,01,02,26,0.00
2010,04,01,02,27,0.00
2010,04,01,02,28,0.10
2010,04,01,02,29,0.00
2010,04,01,02,30,0.00
2010,04,01,02,31,0.00
2010,04,01,02,32,0.30
2010,04,01,02,33,0.10
2010,04,01,02,34,0.00
2010,04,01,02,35,0.00
2010,04,01,02,36,0.40
2010,04,01,02,37,0.00
2010,04,01,02,38,0.00
2010,04,01,02,39,0.00
2010,04,01,02,40,0.00
2010,04,01,02,41,0.00
2010,04,01,02,42,0.00
2010,04,01,02,43,0.60
2010,04,01,02,44,0.10
2010,04,01,02,45,0.00
2010,04,01,02,46,0.20
2010,04,01,02,47,0.00
2010,04,01,02,48,0.00
2010,04,01,02,49,0.00
2010,04,01,02,50,0.80
2010,04,01,02,51,0.50
2010,04,01,02,52,1.00
2010,04,01,02,53,0.00
2010,04,01,02,54,2.40
2010,04,01,02,55,0.80
2010,04,01,02,56,0.00
2010,04,01,02,57,0.10
2010,04,01,02,58,0.10
2010,04,01,02,59,0.00
2010,04,01,03,00,0.00
2010,04,01,03,01,1.20
2010,04,01,03,02,0.40
2010,04,01,03,03,0.10
2010,04,01,03,04,0.10
2010,04,01,03,05,0.00
2010,04,01,03,06,0.10
2010,04,01,03,07,0.50
2010,04,01,03,08,0.60
2010,04,01,03,09,0.30
2010,04,01,03,10,0.00
2010,04,01,03,11,0.10
2010,04,01,03,12,0.00
2010,04,01,03,13,0.00
2010,04,01,03,14,0.20
2010,04,01,03,15,0.00
2010,04,01,03,16,0.00
2010,04,01,03,17,0.00
2010,04,01,03,18,0.00
2010,04,01,03,19,0.80
2010,04,01,03,20,1.80
2010,04,01,03,21,0.20
2010,04,01,03,22,0.00
2010,04,01,03,23,0.00
2010,04,01,03,24,0.20
2010,04,01,03,25,0.00
2010,04,01,03,26,0.00
2010,04,01,03,27,0.00
2010,04,01,03,28,0.00
2010,04,01,03,29,0.40
2010,04,01,03,30,0.00
2010,04,01,03,31,0.40
2010,04,01,03,32,0.00
2010,04,01,03,33,0.00
2010,04,01,03,34,0.00
2010,04,01,03,35,0.10
2010,04,01,03,36,0.00
2010,04,01,03,37,0.10
2010,04,01,03,38,0.00
2010,04,01,03,39,0.00
2010,04,01,03,40,0.50
2010,04,01,03,41,0.90
2010,04,01,03,42,1.80
2010,04,01,03,43,1.10
2010,04,01,03,44,0.70
2010,04,01,03,45,0.70
2010,04,01,03,46,0.70
2010,04,01,03,47,0.00
2010,04,01,03,48,0.00
2010,04,01,03,49,0.10
2010,04,01,03,50,0.10
2010,04,01,03,51,0.50
2010,04,01,03,52,0.20
2010,04,01,03,53,0.90
2010,04,01,03,54,0.20
2010,04,01,03,55,0.80
2010,04,01,03,56,0.00
2010,04,01,03,57,0.20
2010,04,01,03,58,0.70
2010,04,01,03,59,1.00
2010,04,01,04,00,0.40
2010,04,01,04,01,0.40
2010,04,01,04,02,1.30
2010,04,01,04,03,1.40
2010,04,01,04,04,1.00
2010,04,01,04,05,2.30
2010,04,01,04,06,0.30
2010,04,01,04,07,0.10
2010,04,01,04,08,0.50
2010,04,01,04,09,0.10
2010,04,01,04,10,1.30
2010,04,01,04,11,0.00
2010,04,01,04,12,0.20
2010,04,01,04,13,0.20
2010,04,01,04,14,0.40
2010,04,01,04,15,0.30
2010,04,01,04,16,0.20
2010,04,01,04,17,0.70
2010,04,01,04,18,0.00
2010,04,01,04,19,0.40
2010,04,01,04,20,0.00
2010,04,01,04,21,0.50
2010,04,01,04,22,0.00
2010,04,01,04,23,0.00
2010,04,01,04,24,0.00
2010,04,01,04,25,0.40
2010,04,01,04,26,0.40
2010,04,01,04,27,0.50
2010,04,01,04,28,0.00
2010,04,01,04,29,0.00
2010,04,01,04,30,0.10
2010,04,01,04,31,0.30
2010,04,01,04,32,0.00
2010,04,01,04,33,0.10
2010,04,01,04,34,0.00
2010,04,01,04,35,0.50
2010,04,01,04,36,0.00
2010,04,01,04,37,0.40
2010,04,01,04,38,0.00
2010,04,01,04,39,0.70
2010,04,01,04,40,0.10
2010,04,01,04,41,0.40
2010,04,01,04,42,0.90
2010,04,01,04,43,0.90
2010,04,01,04,44,1.20
2010,04,01,04,45,2.60
2010,04,01,04,46,2.70
2010,04,01,04,47,0.10
2010,04,01,04,48,2.00
2010,04,01,04,49,0.40
2010,04,01,04,50,0.30
2010,04,01,04,51,0.00
2010,04,01,04,52,0.00
2010,04,01,04,53,0.00
2010,04,01,04,54,0.00
2010,04,01,04,55,0.10
2010,04,01,04,56,2.10
2010,04,01,04,57,0.80
2010,04,01,04,58,2.60
2010,04,01,04,59,2.70
2010,04,01,05,00,2.50
2010,04,01,05,01,2.70
2010,04,01,05,02,2.80
2010,04,01,05,03,3.90
2010,04,01,05,04,5.30
2010,04,01,05,05,4.10
2010,04,01,05,06,3.60
2010,04,01,05,07,4.60
2010,04,01,05,08,4.40
2010,04,01,05,09,3.50
2010,04,01,05,10,3.00
2010,04,01,05,11,4.70
2010,04,01,05,12,1.10
2010,04,01,05,13,2.00
2010,04,01,05,14,2.50
2010,04,01,05,15,0.50
2010,04,01,05,16,2.60
2010,04,01,05,17,3.00
2010,04,01,05,18,2.80
2010,04,01,05,19,1.10
2010,04,01,05,20,2.20
2010,04,01,05,21,3.00
2010,04,01,05,22,2.50
2010,04,01,05,23,4.10
2010,04,01,05,24,3.30
2010,04,01,05,25,2.10
2010,04,01,05,26,2.10
2010,04,01,05,27,0.10
2010,04,01,05,28,0.60
2010,04,01,05,29,0.10
2010,04,01,05,30,0.10
2010,04,01,05,31,0.60
2010,04,01,05,32,0.60
2010,04,01,05,33,1.40
2010,04,01,05,34,0.40
2010,04,01,05,35,1.00
2010,04,01,05,36,1.00
2010,04,01,05,37,1.00
2010,04,01,05,38,0.60
2010,04,01,05,39,0.60
2010,04,01,05,40,0.70
2010,04,01,05,41,0.70
2010,04,01,05,42,0.70
2010,04,01,05,43,1.80
2010,04,01,05,44,0.30
2010,04,01,05,45,0.90
2010,04,01,05,46,1.00
2010,04,01,05,47,1.60
2010,04,01,05,48,1.00
2010,04,01,05,49,2.30
2010,04,01,05,50,1.80
2010,04,01,05,51,0.80
2010,04,01,05,52,2.70
2010,04,01,05,53,3.20
2010,04,01,05,54,2.40
2010,04,01,05,55,1.20
2010,04,01,05,56,0.80
2010,04,01,05,57,1.00
2010,04,01,05,58,1.50
2010,04,01,05,59,0.80
2010,04,01,06,00,2.00
2010,04,01,06,01,2.00
2010,04,01,06,02,1.30
2010,04,01,06,03,0.60
2010,04,01,06,04,1.00
2010,04,01,06,05,2.20
2010,04,01,06,06,0.10
2010,04,01,06,07,1.50
2010,04,01,06,08,1.10
2010,04,01,06,09,0.40
2010,04,01,06,10,0.10
2010,04,01,06,11,0.20
2010,04,01,06,12,0.80
2010,04,01,06,13,1.00
2010,04,01,06,14,2.20
2010,04,01,06,15,3.20
2010,04,01,06,16,4.30
2010,04,01,06,17,2.90
2010,04,01,06,18,0.20
2010,04,01,06,19,2.90
2010,04,01,06,20,2.60
2010,04,01,06,21,3.20
2010,04,01,06,22,2.00
2010,04,01,06,23,1.60
2010,04,01,06,24,3.10
2010,04,01,06,25,5.60
2010,04,01,06,26,3.80
2010,04,01,06,27,1.40
2010,04,01,06,28,1.00
2010,04,01,06,29,1.20
2010,04,01,06,30,2.10
2010,04,01,06,31,0.10
2010,04,01,06,32,0.50
2010,04,01,06,33,0.20
2010,04,01,06,34,0.50
2010,04,01,06,35,1.60
2010,04,01,06,36,3.70
2010,04,01,06,37,1.30
2010,04,01,06,38,0.50
2010,04,01,06,39,2.80
2010,04,01,06,40,0.10
2010,04,01,06,41,1.00
2010,04,01,06,42,2.00
2010,04,01,06,43,0.10
2010,04,01,06,44,0.00
2010,04,01,06,45,1.00
2010,04,01,06,46,1.00
2010,04,01,06,47,2.60
2010,04,01,06,48,3.00
2010,04,01,06,49,0.80
2010,04,01,06,50,2.80
2010,04,01,06,51,1.70
2010,04,01,06,52,0.50
2010,04,01,06,53,1.00
2010,04,01,06,54,3.30
2010,04,01,06,55,3.30
2010,04,01,06,56,3.60
2010,04,01,06,57,2.70
2010,04,01,06,58,2.60
2010,04,01,06,59,1.50
2010,04,01,07,00,2.10
2010,04,01,07,01,3.60
2010,04,01,07,02,5.70
2010,04,01,07,03,4.60
2010,04,01,07,04,4.70
2010,04,01,07,05,5.70
2010,04,01,07,06,10.60
2010,04,01,07,07,13.60
2010,04,01,07,08,10.50
2010,04,01,07,09,5.00
2010,04,01,07,10,6.90
2010,04,01,07,11,3.90
2010,04,01,07,12,7.20
2010,04,01,07,13,4.10
2010,04,01,07,14,2.00
2010,04,01,07,15,4.30
2010,04,01,07,16,4.10
2010,04,01,07,17,4.20
2010,04,01,07,18,2.20
2010,04,01,07,19,4.50
2010,04,01,07,20,2.10
2010,04,01,07,21,2.90
2010,04,01,07,22,3.40
2010,04,01,07,23,4.10
2010,04,01,07,24,3.30
2010,04,01,07,25,3.90
2010,04,01,07,26,2.60
2010,04,01,07,27,1.10
2010,04,01,07,28,1.70
2010,04,01,07,29,1.10
2010,04,01,07,30,4.30
2010,04,01,07,31,1.80
2010,04,01,07,32,3.40
2010,04,01,07,33,0.90
2010,04,01,07,34,2.00
2010,04,01,07,35,2.90
2010,04,01,07,36,3.30
2010,04,01,07,37,3.40
2010,04,01,07,38,1.80
2010,04,01,07,39,2.10
2010,04,01,07,40,2.80
2010,04,01,07,41,2.60
2010,04,01,07,42,1.30
2010,04,01,07,43,0.40
2010,04,01,07,44,0.00
2010,04,01,07,45,0.20
2010,04,01,07,46,0.00
2010,04,01,07,47,0.20
2010,04,01,07,48,0.20
2010,04,01,07,49,0.10
2010,04,01,07,50,0.00
2010,04,01,07,51,0.20
2010,04,01,07,52,0.20
2010,04,01,07,53,2.40
2010,04,01,07,54,1.50
2010,04,01,07,55,2.30
2010,04,01,07,56,1.90
2010,04,01,07,57,2.30
2010,04,01,07,58,1.30
2010,04,01,07,59,1.80
2010,04,01,08,00,4.50
2010,04,01,08,01,2.50
2010,04,01,08,02,1.90
2010,04,01,08,03,2.60
2010,04,01,08,04,0.30
2010,04,01,08,05,3.30
2010,04,01,08,06,4.00
2010,04,01,08,07,1.20
2010,04,01,08,08,2.00
2010,04,01,08,09,4.10
2010,04,01,08,10,7.40
2010,04,01,08,11,3.30
2010,04,01,08,12,1.80
2010,04,01,08,13,1.70
2010,04,01,08,14,3.10
2010,04,01,08,15,1.50
2010,04,01,08,16,0.60
2010,04,01,08,17,0.30
2010,04,01,08,18,4.40
2010,04,01,08,19,2.50
2010,04,01,08,20,4.60
2010,04,01,08,21,4.20
2010,04,01,08,22,3.90
2010,04,01,08,23,5.40
2010,04,01,08,24,3.90
2010,04,01,08,25,4.30
2010,04,01,08,26,2.90
2010,04,01,08,27,2.60
2010,04,01,08,28,2.60
2010,04,01,08,29,1.30
2010,04,01,08,30,5.10
2010,04,01,08,31,4.30
2010,04,01,08,32,4.90
2010,04,01,08,33,5.40
2010,04,01,08,34,4.30
2010,04,01,08,35,3.90
2010,04,01,08,36,5.60
2010,04,01,08,37,4.20
2010,04,01,08,38,3.60
2010,04,01,08,39,3.80
2010,04,01,08,40,3.10
2010,04,01,08,41,0.70
2010,04,01,08,42,2.90
2010,04,01,08,43,0.40
2010,04,01,08,44,2.70
2010,04,01,08,45,4.80
2010,04,01,08,46,1.80
2010,04,01,08,47,1.10
2010,04,01,08,48,1.30
2010,04,01,08,49,0.60
2010,04,01,08,50,1.50
2010,04,01,08,51,2.50
2010,04,01,08,52,0.50
2010,04,01,08,53,0.90
2010,04,01,08,54,0.50
2010,04,01,08,55,4.00
2010,04,01,08,56,3.40
2010,04,01,08,57,4.00
2010,04,01,08,58,1.50
2010,04,01,08,59,3.40
2010,04,01,09,00,3.20
2010,04,01,09,01,1.20
2010,04,01,09,02,2.20
2010,04,01,09,03,0.90
2010,04,01,09,04,2.30
2010,04,01,09,05,2.60
2010,04,01,09,06,4.80
2010,04,01,09,07,4.70
2010,04,01,09,08,2.00
2010,04,01,09,09,0.40
2010,04,01,09,10,0.60
2010,04,01,09,11,1.90
2010,04,01,09,12,4.90
2010,04,01,09,13,2.10
2010,04,01,09,14,1.90
2010,04,01,09,15,3.70
2010,04,01,09,16,4.10
2010,04,01,09,17,4.50
2010,04,01,09,18,3.20
2010,04,01,09,19,2.10
2010,04,01,09,20,7.60
2010,04,01,09,21,5.50
2010,04,01,09,22,1.90
2010,04,01,09,23,2.80
2010,04,01,09,24,4.60
2010,04,01,09,25,2.40
2010,04,01,09,26,0.00
2010,04,01,09,27,4.30
2010,04,01,09,28,6.90
2010,04,01,09,29,7.10
2010,04,01,09,30,6.30
2010,04,01,09,31,6.60
2010,04,01,09,32,5.90
2010,04,01,09,33,4.70
2010,04,01,09,34,10.00
2010,04,01,09,35,8.10
2010,04,01,09,36,9.10
2010,04,01,09,37,3.70
2010,04,01,09,38,3.20
2010,04,01,09,39,0.80
2010,04,01,09,40,2.30
2010,04,01,09,41,4.70
2010,04,01,09,42,2.80
2010,04,01,09,43,2.20
2010,04,01,09,44,2.40
2010,04,01,09,45,0.70
2010,04,01,09,46,0.20
2010,04,01,09,47,0.10
2010,04,01,09,48,0.90
2010,04,01,09,49,5.80
2010,04,01,09,50,3.20
2010,04,01,09,51,3.20
2010,04,01,09,52,0.40
2010,04,01,09,53,5.00
2010,04,01,09,54,4.70
2010,04,01,09,55,2.00
2010,04,01,09,56,0.80
2010,04,01,09,57,0.80
2010,04,01,09,58,6.40
2010,04,01,09,59,5.90
2010,04,01,10,00,5.80
2010,04,01,10,01,10.20
2010,04,01,10,02,8.50
2010,04,01,10,03,8.00
2010,04,01,10,04,6.00
2010,04,01,10,05,2.40
2010,04,01,10,06,2.80
2010,04,01,10,07,4.80
2010,04,01,10,08,6.70
2010,04,01,10,09,6.40
2010,04,01,10,10,8.00
2010,04,01,10,11,6.70
2010,04,01,10,12,11.00
2010,04,01,10,13,6.70
2010,04,01,10,14,9.90
2010,04,01,10,15,7.00
2010,04,01,10,16,4.80
2010,04,01,10,17,9.30
2010,04,01,10,18,9.40
2010,04,01,10,19,13.20
2010,04,01,10,20,11.80
2010,04,01,10,21,10.10
2010,04,01,10,22,4.80
2010,04,01,10,23,6.70
2010,04,01,10,24,8.50
2010,04,01,10,25,6.00
2010,04,01,10,26,6.50
2010,04,01,10,27,5.20
2010,04,01,10,28,2.50
2010,04,01,10,29,4.10
2010,04,01,10,30,5.50
2010,04,01,10,31,2.70
2010,04,01,10,32,5.50
2010,04,01,10,33,8.50
2010,04,01,10,34,5.90
2010,04,01,10,35,3.90
2010,04,01,10,36,5.00
2010,04,01,10,37,6.40
2010,04,01,10,38,1.90
2010,04,01,10,39,6.40
2010,04,01,10,40,7.80
2010,04,01,10,41,11.00
2010,04,01,10,42,8.10
2010,04,01,10,43,5.80
2010,04,01,10,44,7.60
2010,04,01,10,45,3.10
2010,04,01,10,46,8.00
2010,04,01,10,47,9.50
2010,04,01,10,48,7.00
2010,04,01,10,49,6.50
2010,04,01,10,50,3.00
2010,04,01,10,51,5.20
2010,04,01,10,52,5.40
2010,04,01,10,53,3.20
2010,04,01,10,54,3.60
2010,04,01,10,55,9.30
2010,04,01,10,56,10.40
2010,04,01,10,57,5.10
2010,04,01,10,58,0.70
2010,04,01,10,59,4.30
2010,04,01,11,00,2.60
2010,04,01,11,01,6.70
2010,04,01,11,02,9.90
2010,04,01,11,03,3.30
2010,04,01,11,04,4.70
2010,04,01,11,05,5.00
2010,04,01,11,06,7.80
2010,04,01,11,07,6.20
2010,04,01,11,08,7.80
2010,04,01,11,09,7.20
2010,04,01,11,10,6.20
2010,04,01,11,11,8.00
2010,04,01,11,12,7.60
2010,04,01,11,13,8.10
2010,04,01,11,14,10.20
2010,04,01,11,15,11.80
2010,04,01,11,16,8.60
2010,04,01,11,17,5.60
2010,04,01,11,18,7.90
2010,04,01,11,19,7.30
2010,04,01,11,20,12.50
2010,04,01,11,21,4.80
2010,04,01,11,22,3.00
2010,04,01,11,23,3.40
2010,04,01,11,24,10.40
2010,04,01,11,25,14.30
2010,04,01,11,26,7.70
2010,04,01,11,27,8.80
2010,04,01,11,28,10.40
2010,04,01,11,29,7.40
2010,04,01,11,30,4.40
2010,04,01,11,31,5.20
2010,04,01,11,32,9.00
2010,04,01,11,33,4.50
2010,04,01,11,34,7.90
2010,04,01,11,35,5.70
2010,04,01,11,36,8.70
2010,04,01,11,37,8.10
2010,04,01,11,38,4.80
2010,04,01,11,39,7.20
2010,04,01,11,40,7.00
2010,04,01,11,41,1.20
2010,04,01,11,42,3.70
2010,04,01,11,43,9.00
2010,04,01,11,44,6.90
2010,04,01,11,45,15.50
2010,04,01,11,46,12.30
2010,04,01,11,47,14.10
2010,04,01,11,48,15.80
2010,04,01,11,49,15.40
2010,04,01,11,50,14.90
2010,04,01,11,51,14.70
2010,04,01,11,52,17.90
2010,04,01,11,53,13.70
2010,04,01,11,54,6.10
2010,04,01,11,55,10.50
2010,04,01,11,56,7.50
2010,04,01,11,57,7.80
2010,04,01,11,58,8.20
2010,04,01,11,59,13.30
2010,04,01,12,00,13.50
2010,04,01,12,01,21.40
2010,04,01,12,02,13.10
2010,04,01,12,03,14.90
2010,04,01,12,04,10.60
2010,04,01,12,05,9.50
2010,04,01,12,06,6.30
2010,04,01,12,07,3.20
2010,04,01,12,08,2.10
2010,04,01,12,09,2.10
2010,04,01,12,10,4.80
2010,04,01,12,11,17.00
2010,04,01,12,12,12.70
2010,04,01,12,13,7.30
2010,04,01,12,14,8.50
2010,04,01,12,15,8.30
2010,04,01,12,16,4.80
2010,04,01,12,17,7.60
2010,04,01,12,18,3.70
2010,04,01,12,19,4.30
2010,04,01,12,20,6.30
2010,04,01,12,21,3.80
2010,04,01,12,22,9.70
2010,04,01,12,23,15.80
2010,04,01,12,24,13.60
2010,04,01,12,25,12.50
2010,04,01,12,26,17.50
2010,04,01,12,27,10.20
2010,04,01,12,28,12.40
2010,04,01,12,29,12.90
2010,04,01,12,30,5.40
2010,04,01,12,31,5.80
2010,04,01,12,32,7.20
2010,04,01,12,33,9.80
2010,04,01,12,34,7.20
2010,04,01,12,35,4.20
2010,04,01,12,36,10.30
2010,04,01,12,37,11.40
2010,04,01,12,38,6.70
2010,04,01,12,39,6.60
2010,04,01,12,40,17.00
2010,04,01,12,41,15.40
2010,04,01,12,42,17.60
2010,04,01,12,43,13.30
2010,04,01,12,44,12.90
2010,04,01,12,45,19.10
2010,04,01,12,46,12.00
2010,04,01,12,47,9.90
2010,04,01,12,48,18.70
2010,04,01,12,49,16.90
2010,04,01,12,50,11.30
2010,04,01,12,51,13.80
2010,04,01,12,52,8.30
2010,04,01,12,53,18.10
2010,04,01,12,54,10.80
2010,04,01,12,55,11.10
2010,04,01,12,56,12.50
2010,04,01,12,57,15.30
2010,04,01,12,58,15.20
2010,04,01,12,59,16.50
2010,04,01,13,00,18.70
2010,04,01,13,01,21.90
2010,04,01,13,02,21.60
2010,04,01,13,03,19.30
2010,04,01,13,04,17.10
2010,04,01,13,05,18.70
2010,04,01,13,06,14.80
2010,04,01,13,07,14.80
2010,04,01,13,08,15.20
2010,04,01,13,09,13.10
2010,04,01,13,10,20.00
2010,04,01,13,11,16.40
2010,04,01,13,12,15.70
2010,04,01,13,13,15.90
2010,04,01,13,14,17.10
2010,04,01,13,15,21.10
2010,04,01,13,16,17.00
2010,04,01,13,17,7.60
2010,04,01,13,18,18.50
2010,04,01,13,19,11.80
2010,04,01,13,20,20.50
2010,04,01,13,21,15.70
2010,04,01,13,22,17.60
2010,04,01,13,23,14.50
2010,04,01,13,24,16.90
2010,04,01,13,25,17.60
2010,04,01,13,26,17.30
2010,04,01,13,27,16.10
2010,04,01,13,28,15.60
2010,04,01,13,29,16.30
2010,04,01,13,30,17.40
2010,04,01,13,31,19.20
2010,04,01,13,32,20.90
2010,04,01,13,33,20.10
2010,04,01,13,34,16.40
2010,04,01,13,35,16.70
2010,04,01,13,36,19.40
2010,04,01,13,37,15.20
2010,04,01,13,38,17.50
2010,04,01,13,39,16.30
2010,04,01,13,40,11.20
2010,04,01,13,41,9.50
2010,04,01,13,42,17.30
2010,04,01,13,43,14.40
2010,04,01,13,44,13.10
2010,04,01,13,45,11.50
2010,04,01,13,46,13.90
2010,04,01,13,47,12.30
2010,04,01,13,48,9.70
2010,04,01,13,49,17.00
2010,04,01,13,50,16.60
2010,04,01,13,51,14.30
2010,04,01,13,52,13.10
2010,04,01,13,53,16.20
2010,04,01,13,54,16.20
2010,04,01,13,55,16.30
2010,04,01,13,56,14.30
2010,04,01,13,57,16.80
2010,04,01,13,58,16.50
2010,04,01,13,59,15.50
2010,04,01,14,00,11.80
2010,04,01,14,01,16.50
2010,04,01,14,02,14.50
2010,04,01,14,03,11.70
2010,04,01,14,04,10.50
2010,04,01,14,05,16.40
2010,04,01,14,06,16.80
2010,04,01,14,07,15.60
2010,04,01,14,08,13.40
2010,04,01,14,09,10.90
2010,04,01,14,10,11.40
2010,04,01,14,11,8.20
2010,04,01,14,12,6.40
2010,04,01,14,13,14.70
2010,04,01,14,14,20.20
2010,04,01,14,15,19.00
2010,04,01,14,16,15.70
2010,04,01,14,17,10.40
2010,04,01,14,18,16.80
2010,04,01,14,19,17.30
2010,04,01,14,20,13.30
2010,04,01,14,21,11.50
2010,04,01,14,22,11.70
2010,04,01,14,23,16.00
2010,04,01,14,24,10.00
2010,04,01,14,25,12.90
2010,04,01,14,26,8.50
2010,04,01,14,27,14.60
2010,04,01,14,28,17.40
2010,04,01,14,29,14.10
2010,04,01,14,30,8.20
2010,04,01,14,31,14.60
2010,04,01,14,32,12.00
2010,04,01,14,33,15.60
2010,04,01,14,34,13.90
2010,04,01,14,35,14.80
2010,04,01,14,36,10.90
2010,04,01,14,37,15.50
2010,04,01,14,38,6.30
2010,04,01,14,39,7.70
2010,04,01,14,40,7.00
2010,04,01,14,41,13.20
2010,04,01,14,42,15.30
2010,04,01,14,43,12.00
2010,04,01,14,44,12.80
2010,04,01,14,45,12.90
2010,04,01,14,46,9.10
2010,04,01,14,47,12.40
2010,04,01,14,48,9.20
2010,04,01,14,49,10.00
2010,04,01,14,50,8.10
2010,04,01,14,51,4.80
2010,04,01,14,52,7.90
2010,04,01,14,53,10.50
2010,04,01,14,54,8.80
2010,04,01,14,55,4.80
2010,04,01,14,56,2.20
2010,04,01,14,57,9.70
2010,04,01,14,58,15.40
2010,04,01,14,59,18.20
2010,04,01,15,00,17.00
2010,04,01,15,01,17.20
2010,04,01,15,02,10.40
2010,04,01,15,03,12.50
2010,04,01,15,04,10.80
2010,04,01,15,05,14.20
2010,04,01,15,06,19.00
2010,04,01,15,07,14.40
2010,04,01,15,08,8.90
2010,04,01,15,09,7.80
2010,04,01,15,10,10.50
2010,04,01,15,11,12.90
2010,04,01,15,12,10.50
2010,04,01,15,13,9.50
2010,04,01,15,14,11.10
2010,04,01,15,15,9.40
2010,04,01,15,16,10.80
2010,04,01,15,17,12.50
2010,04,01,15,18,11.00
2010,04,01,15,19,8.40
2010,04,01,15,20,7.40
2010,04,01,15,21,10.80
2010,04,01,15,22,7.00
2010,04,01,15,23,7.40
2010,04,01,15,24,6.00
2010,04,01,15,25,12.00
2010,04,01,15,26,7.80
2010,04,01,15,27,6.10
2010,04,01,15,28,16.20
2010,04,01,15,29,10.80
2010,04,01,15,30,14.00
2010,04,01,15,31,15.20
2010,04,01,15,32,13.70
2010,04,01,15,33,14.00
2010,04,01,15,34,14.60
2010,04,01,15,35,13.00
2010,04,01,15,36,13.20
2010,04,01,15,37,14.70
2010,04,01,15,38,13.40
2010,04,01,15,39,10.40
2010,04,01,15,40,9.70
2010,04,01,15,41,9.60
2010,04,01,15,42,10.30
2010,04,01,15,43,15.30
2010,04,01,15,44,17.80
2010,04,01,15,45,15.90
2010,04,01,15,46,11.70
2010,04,01,15,47,12.10
2010,04,01,15,48,20.10
2010,04,01,15,49,13.80
2010,04,01,15,50,15.30
2010,04,01,15,51,8.50
2010,04,01,15,52,17.80
2010,04,01,15,53,14.30
2010,04,01,15,54,15.40
2010,04,01,15,55,10.60
2010,04,01,15,56,11.60
2010,04,01,15,57,17.20
2010,04,01,15,58,14.00
2010,04,01,15,59,14.70
2010,04,01,16,00,17.70
2010,04,01,16,01,15.50
2010,04,01,16,02,16.80
2010,04,01,16,03,9.20
2010,04,01,16,04,10.50
2010,04,01,16,05,14.30
2010,04,01,16,06,11.50
2010,04,01,16,07,10.60
2010,04,01,16,08,9.70
2010,04,01,16,09,14.30
2010,04,01,16,10,14.70
2010,04,01,16,11,10.70
2010,04,01,16,12,15.00
2010,04,01,16,13,10.20
2010,04,01,16,14,13.20
2010,04,01,16,15,14.40
2010,04,01,16,16,13.10
2010,04,01,16,17,11.50
2010,04,01,16,18,8.60
2010,04,01,16,19,12.90
2010,04,01,16,20,10.50
2010,04,01,16,21,12.50
2010,04,01,16,22,9.80
2010,04,01,16,23,15.60
2010,04,01,16,24,8.40
2010,04,01,16,25,10.20
2010,04,01,16,26,7.80
2010,04,01,16,27,11.80
2010,04,01,16,28,9.20
2010,04,01,16,29,9.40
2010,04,01,16,30,9.60
2010,04,01,16,31,6.50
2010,04,01,16,32,9.90
2010,04,01,16,33,9.00
2010,04,01,16,34,8.90
2010,04,01,16,35,8.20
2010,04,01,16,36,5.60
2010,04,01,16,37,5.90
2010,04,01,16,38,6.20
2010,04,01,16,39,6.80
2010,04,01,16,40,9.10
2010,04,01,16,41,8.50
2010,04,01,16,42,6.20
2010,04,01,16,43,5.70
2010,04,01,16,44,6.90
2010,04,01,16,45,6.10
2010,04,01,16,46,4.20
2010,04,01,16,47,7.00
2010,04,01,16,48,9.70
2010,04,01,16,49,9.90
2010,04,01,16,50,4.70
2010,04,01,16,51,6.90
2010,04,01,16,52,7.50
2010,04,01,16,53,8.90
2010,04,01,16,54,5.80
2010,04,01,16,55,7.00
2010,04,01,16,56,3.10
2010,04,01,16,57,4.70
2010,04,01,16,58,5.70
2010,04,01,16,59,3.00
2010,04,01,17,00,2.50
2010,04,01,17,01,0.70
2010,04,01,17,02,0.70
2010,04,01,17,03,5.50
2010,04,01,17,04,1.00
2010,04,01,17,05,2.70
2010,04,01,17,06,1.70
2010,04,01,17,07,4.00
2010,04,01,17,08,0.70
2010,04,01,17,09,2.30
2010,04,01,17,10,3.60
2010,04,01,17,11,3.30
2010,04,01,17,12,2.40
2010,04,01,17,13,3.90
2010,04,01,17,14,5.70
2010,04,01,17,15,2.60
2010,04,01,17,16,3.90
2010,04,01,17,17,2.00
2010,04,01,17,18,1.70
2010,04,01,17,19,0.30
2010,04,01,17,20,2.50
2010,04,01,17,21,0.10
2010,04,01,17,22,0.10
2010,04,01,17,23,0.10
2010,04,01,17,24,2.10
2010,04,01,17,25,1.30
2010,04,01,17,26,0.70
2010,04,01,17,27,2.00
2010,04,01,17,28,2.30
2010,04,01,17,29,3.80
2010,04,01,17,30,5.10
2010,04,01,17,31,4.50
2010,04,01,17,32,3.40
2010,04,01,17,33,3.90
2010,04,01,17,34,4.80
2010,04,01,17,35,4.60
2010,04,01,17,36,2.60
2010,04,01,17,37,1.00
2010,04,01,17,38,1.10
2010,04,01,17,39,2.10
2010,04,01,17,40,0.70
2010,04,01,17,41,0.10
2010,04,01,17,42,0.10
2010,04,01,17,43,0.20
2010,04,01,17,44,0.50
2010,04,01,17,45,0.80
2010,04,01,17,46,0.70
2010,04,01,17,47,1.00
2010,04,01,17,48,1.20
2010,04,01,17,49,0.50
2010,04,01,17,50,0.50
2010,04,01,17,51,0.10
2010,04,01,17,52,0.00
2010,04,01,17,53,0.00
2010,04,01,17,54,1.60
2010,04,01,17,55,1.40
2010,04,01,17,56,0.30